TimeCDT,TemperatureF,Dew PointF,Humidity,Sea Level PressureIn,VisibilityMPH,Wind Direction,Wind SpeedMPH,Gust SpeedMPH,PrecipitationIn,Events,Conditions,WindDirDegrees,DateUTC
12:15 AM,66.2,55.4,68,30.18,10.0,North,4.6,-,N/A,,Scattered Clouds,350,2012-09-13 05:15:00
12:35 AM,66.2,55.4,68,30.19,10.0,NNW,10.4,-,N/A,,Overcast,340,2012-09-13 05:35:00
12:55 AM,66.2,57.2,73,30.18,10.0,Calm,Calm,-,N/A,,Overcast,0,2012-09-13 05:55:00
1:15 AM,66.2,57.2,73,30.16,10.0,Calm,Calm,-,N/A,,Overcast,0,2012-09-13 06:15:00
1:35 AM,64.4,57.2,77,30.17,10.0,Calm,Calm,-,N/A,,Scattered Clouds,0,2012-09-13 06:35:00
1:55 AM,64.4,55.4,73,30.17,10.0,Calm,Calm,-,N/A,,Clear,0,2012-09-13 06:55:00
2:15 AM,64.4,55.4,73,30.17,10.0,Calm,Calm,-,N/A,,Partly Cloudy,0,2012-09-13 07:15:00
2:35 AM,62.6,55.4,77,30.16,10.0,Calm,Calm,-,N/A,,Partly Cloudy,0,2012-09-13 07:35:00
2:55 AM,62.6,55.4,77,30.16,10.0,Calm,Calm,-,N/A,,Clear,0,2012-09-13 07:55:00
3:15 AM,62.6,55.4,77,30.18,10.0,Calm,Calm,-,N/A,,Scattered Clouds,0,2012-09-13 08:15:00
3:35 AM,64.4,55.4,73,30.18,10.0,Calm,Calm,-,N/A,,Overcast,0,2012-09-13 08:35:00
3:55 AM,66.2,55.4,68,30.18,10.0,Calm,Calm,-,N/A,,Overcast,0,2012-09-13 08:55:00
4:15 AM,66.2,57.2,73,30.18,10.0,North,9.2,-,N/A,,Overcast,10,2012-09-13 09:15:00
4:35 AM,66.2,57.2,73,30.21,10.0,Calm,Calm,-,N/A,Thunderstorm,Overcast,0,2012-09-13 09:35:00
4:55 AM,64.4,57.2,77,30.21,10.0,Calm,Calm,-,N/A,Thunderstorm,Thunderstorm,0,2012-09-13 09:55:00
5:15 AM,64.4,59.0,83,30.20,10.0,Calm,Calm,-,0.02,Thunderstorm,Thunderstorm,0,2012-09-13 10:15:00
5:35 AM,62.6,60.8,94,30.20,10.0,Calm,Calm,-,0.06,,Overcast,0,2012-09-13 10:35:00
5:55 AM,62.6,59.0,88,30.20,10.0,Calm,Calm,-,0.09,,Overcast,0,2012-09-13 10:55:00
6:15 AM,62.6,60.8,94,30.21,10.0,Calm,Calm,-,0.01,,Overcast,0,2012-09-13 11:15:00
6:35 AM,62.6,59.0,88,30.21,10.0,Calm,Calm,-,0.01,,Overcast,0,2012-09-13 11:35:00
6:55 AM,62.6,59.0,88,30.22,10.0,Calm,Calm,-,0.02,,Overcast,0,2012-09-13 11:55:00
7:15 AM,62.6,59.0,88,30.23,10.0,North,12.7,-,N/A,,Overcast,360,2012-09-13 12:15:00
7:35 AM,62.6,57.2,82,30.24,10.0,NNE,15.0,-,0.03,,Overcast,20,2012-09-13 12:35:00
7:55 AM,62.6,57.2,82,30.24,10.0,NNE,12.7,-,0.04,,Overcast,20,2012-09-13 12:55:00
8:15 AM,60.8,57.2,88,30.24,10.0,NNE,15.0,-,N/A,,Overcast,20,2012-09-13 13:15:00
8:35 AM,60.8,57.2,88,30.25,10.0,North,11.5,19.6,N/A,,Overcast,10,2012-09-13 13:35:00
8:55 AM,60.8,57.2,88,30.25,10.0,North,13.8,-,0.01,,Overcast,350,2012-09-13 13:55:00
9:15 AM,60.8,57.2,88,30.26,10.0,North,15.0,-,0.03,,Overcast,360,2012-09-13 14:15:00
9:35 AM,60.8,57.2,88,30.25,10.0,NNE,17.3,20.7,0.08,,Overcast,20,2012-09-13 14:35:00
9:55 AM,60.8,57.2,88,30.25,10.0,NE,13.8,-,0.09,,Overcast,40,2012-09-13 14:55:00
10:15 AM,60.8,57.2,88,30.24,10.0,NNE,13.8,18.4,N/A,,Overcast,30,2012-09-13 15:15:00
10:35 AM,60.8,57.2,88,30.26,10.0,NE,10.4,-,0.01,,Overcast,50,2012-09-13 15:35:00
10:55 AM,60.8,57.2,88,30.27,10.0,NE,12.7,19.6,0.01,,Overcast,40,2012-09-13 15:55:00
11:15 AM,60.8,57.2,88,30.29,10.0,NNE,13.8,-,0.01,,Overcast,20,2012-09-13 16:15:00
11:35 AM,57.2,55.4,94,30.28,10.0,NE,17.3,23.0,0.03,,Overcast,40,2012-09-13 16:35:00
11:55 AM,59.0,55.4,88,30.29,10.0,NNE,11.5,23.0,0.03,,Overcast,30,2012-09-13 16:55:00
12:15 PM,59.0,55.4,88,30.30,10.0,NNE,15.0,18.4,N/A,,Overcast,20,2012-09-13 17:15:00
12:55 PM,59.0,55.4,88,30.29,10.0,NNE,16.1,24.2,N/A,,Mostly Cloudy,20,2012-09-13 17:55:00
1:15 PM,59.0,55.4,88,30.30,10.0,NNE,18.4,24.2,N/A,,Mostly Cloudy,20,2012-09-13 18:15:00
1:35 PM,60.8,55.4,82,30.30,10.0,NNE,19.6,25.3,N/A,,Scattered Clouds,20,2012-09-13 18:35:00
1:55 PM,62.6,57.2,82,30.29,10.0,NNE,20.7,25.3,N/A,,Scattered Clouds,30,2012-09-13 18:55:00
2:15 PM,62.6,57.2,82,30.29,10.0,NNE,21.9,26.5,N/A,,Mostly Cloudy,20,2012-09-13 19:15:00
2:35 PM,64.4,57.2,77,30.28,10.0,NNE,24.2,-,N/A,,Mostly Cloudy,20,2012-09-13 19:35:00
2:55 PM,62.6,57.2,82,30.28,10.0,NNE,23.0,27.6,N/A,,Mostly Cloudy,20,2012-09-13 19:55:00
3:15 PM,64.4,57.2,77,30.27,10.0,NNE,23.0,28.8,N/A,,Scattered Clouds,20,2012-09-13 20:15:00
3:35 PM,64.4,57.2,77,30.26,10.0,North,21.9,26.5,N/A,,Mostly Cloudy,10,2012-09-13 20:35:00
3:55 PM,62.6,55.4,77,30.26,10.0,NNE,21.9,26.5,N/A,,Mostly Cloudy,20,2012-09-13 20:55:00
4:15 PM,62.6,55.4,77,30.27,10.0,NNE,19.6,26.5,N/A,,Mostly Cloudy,20,2012-09-13 21:15:00
4:35 PM,62.6,55.4,77,30.27,10.0,NNE,23.0,-,N/A,,Mostly Cloudy,20,2012-09-13 21:35:00
4:55 PM,62.6,55.4,77,30.27,10.0,NNE,18.4,25.3,N/A,,Scattered Clouds,20,2012-09-13 21:55:00
5:15 PM,62.6,53.6,72,30.27,10.0,NNE,20.7,27.6,N/A,,Partly Cloudy,30,2012-09-13 22:15:00
5:35 PM,60.8,53.6,77,30.27,10.0,NNE,24.2,27.6,N/A,,Mostly Cloudy,30,2012-09-13 22:35:00
5:55 PM,60.8,53.6,77,30.27,10.0,NNE,21.9,26.5,N/A,,Overcast,30,2012-09-13 22:55:00
6:15 PM,59.0,51.8,77,30.28,10.0,NNE,24.2,-,N/A,,Overcast,30,2012-09-13 23:15:00
6:35 PM,57.2,51.8,82,30.28,10.0,NNE,21.9,26.5,N/A,,Overcast,30,2012-09-13 23:35:00
6:55 PM,57.2,51.8,82,30.30,10.0,NNE,24.2,-,N/A,,Overcast,30,2012-09-13 23:55:00
7:15 PM,57.2,51.8,82,30.30,10.0,NNE,23.0,28.8,N/A,,Overcast,30,2012-09-14 00:15:00
7:35 PM,57.2,51.8,82,30.30,10.0,NNE,23.0,27.6,N/A,,Overcast,30,2012-09-14 00:35:00
7:55 PM,55.4,51.8,88,30.31,10.0,NNE,21.9,25.3,N/A,,Overcast,30,2012-09-14 00:55:00
8:15 PM,55.4,51.8,88,30.31,10.0,NE,21.9,26.5,N/A,,Mostly Cloudy,40,2012-09-14 01:15:00
8:35 PM,55.4,51.8,88,30.32,10.0,NNE,20.7,26.5,N/A,,Mostly Cloudy,30,2012-09-14 01:35:00
8:55 PM,55.4,51.8,88,30.32,10.0,NNE,19.6,25.3,N/A,,Mostly Cloudy,30,2012-09-14 01:55:00
9:15 PM,55.4,51.8,88,30.33,10.0,NNE,19.6,-,N/A,,Scattered Clouds,30,2012-09-14 02:15:00
9:35 PM,55.4,51.8,88,30.35,10.0,NNE,18.4,-,N/A,,Scattered Clouds,30,2012-09-14 02:35:00
9:55 PM,55.4,51.8,88,30.36,10.0,NNE,21.9,-,N/A,,Mostly Cloudy,20,2012-09-14 02:55:00
10:15 PM,55.4,51.8,88,30.37,10.0,NNE,21.9,26.5,N/A,,Mostly Cloudy,30,2012-09-14 03:15:00
10:35 PM,53.6,51.8,94,30.36,10.0,NNE,23.0,28.8,N/A,,Partly Cloudy,30,2012-09-14 03:35:00
10:55 PM,53.6,51.8,94,30.38,10.0,NNE,20.7,26.5,N/A,,Mostly Cloudy,30,2012-09-14 03:55:00
11:15 PM,53.6,51.8,94,30.38,10.0,NNE,21.9,27.6,N/A,,Overcast,30,2012-09-14 04:15:00
11:35 PM,53.6,51.8,94,30.38,10.0,NNE,21.9,25.3,N/A,,Overcast,30,2012-09-14 04:35:00
11:55 PM,53.6,51.8,94,30.38,10.0,NNE,20.7,26.5,N/A,,Overcast,30,2012-09-14 04:55:00